Location: Baia Mare
(47.6567°N, 23.5850°E)
Time: 04:04:42
(UTC+03:00)

ISS - Pass Details

Date: 10 May 2018
Orbit: 403 x 408 km, 51.6° (Epoch: 19 October)

Event Time Altitude Azimuth Distance (km) Brightness Sun altitude
Exits shadow 03:25:39 46° 129° (SE) 549 -3.3 -19.2°
Drops below altitude 10° 03:28:32 10° 73° (ENE) 1,461 -0.3 -18.9°
Sets 03:30:39 0° 68° (ENE) 2,324 0.9 -18.7°
